Rome, NY

7:41 PM EST on November 11, 2019 (GMT -0500)
Griffiss

Weather History for KRME - September, 2019

Change the Weather History Date:

Friday, September 20, 2019

  Actual Average Record
Temperature  
Mean Temperature 59 °F -  
Max Temperature 75 °F 69 °F 97 °F (2013)
Min Temperature 45 °F 48 °F 31 °F (1993)
Degree Days  
Heating Degree Days 6    
Growing Degree Days 9 (Base 50)    
Moisture  
Dew Point 51 °F    
Average Humidity 79    
Maximum Humidity 100    
Minimum Humidity 48    
Precipitation  
Precipitation 0.00 in - - ()
Sea Level Pressure  
Sea Level Pressure 30.23 in    
Wind  
Wind Speed 3 mph (ESE)    
Max Wind Speed 7 mph    
Max Gust Speed -    
Visibility 10 miles    
Events      
Averages and records for this station are not official NWS values.
T = Trace of Precipitation, MM = Missing Value Source: NWS Daily Summary

Daily Weather History Graph

Daily Weather History Graph

Search for Another Location

Airport or City:

Astronomy

Sep. 20, 2019 Rise Set
Actual Time 6:46 AM EDT 7:03 PM EDT
Civil Twilight 6:17 AM EDT 7:31 PM EDT
Nautical Twilight 5:44 AM EDT 8:04 PM EDT
Astronomical Twilight 5:10 AM EDT 8:39 PM EDT
Moon 10:41 PM EDT (9/20) 12:58 PM EDT (9/20)
Length of Visible Light 13h 13m
Length of Day
12h 16m
Waning Gibbous, 65% of the Moon is Illuminated
Sep 20
Waning Gibbous
Sep 21
Last Quarter
Sep 28
New
Oct 5
First Quarter
Oct 13
Full

Hourly Weather History & Observations

Time (EDT) Temp. Windchill Dew Point Humidity Pressure Visibility Wind Dir Wind Speed Gust Speed Precip Events Conditions
12:53 AM 48.0 °F - 48.0 °F 100% 30.27 in 10.0 mi ESE 3.5 mph - N/A   Clear
1:53 AM 48.0 °F - 46.9 °F 96% 30.27 in 10.0 mi ESE 5.8 mph - N/A   Clear
2:53 AM 46.9 °F - 46.9 °F 100% 30.26 in 10.0 mi SE 4.6 mph - N/A   Clear
3:53 AM 46.0 °F - 45.0 °F 96% 30.26 in 10.0 mi Calm Calm - N/A   Clear
4:53 AM 46.0 °F 44.8 °F 45.0 °F 96% 30.26 in 10.0 mi ESE 3.5 mph - N/A   Clear
5:53 AM 45.0 °F 41.2 °F 45.0 °F 100% 30.27 in 10.0 mi ESE 6.9 mph - N/A   Clear
6:53 AM 45.0 °F 42.6 °F 44.1 °F 97% 30.27 in 10.0 mi SE 4.6 mph - N/A   Clear
7:53 AM 46.9 °F - 46.0 °F 97% 30.29 in 10.0 mi Calm Calm - N/A   Clear
8:53 AM 52.0 °F - 48.0 °F 86% 30.29 in 10.0 mi Calm Calm - N/A   Clear
9:53 AM 57.9 °F - 50.0 °F 75% 30.29 in 10.0 mi SE 3.5 mph - N/A   Clear
10:53 AM 63.0 °F - 52.0 °F 67% 30.27 in 10.0 mi South 3.5 mph - N/A   Clear
11:53 AM 66.9 °F - 52.0 °F 59% 30.24 in 10.0 mi Calm Calm - N/A   Clear
12:53 PM 71.1 °F - 53.1 °F 53% 30.23 in 10.0 mi Calm Calm - N/A   Clear
1:53 PM 73.0 °F - 55.0 °F 53% 30.21 in 10.0 mi Variable 3.5 mph - N/A   Clear
2:19 PM 73.0 °F - 54.0 °F 51% 30.20 in 10.0 mi WSW 5.8 mph - N/A   Clear
2:53 PM 73.9 °F - 53.1 °F 48% 30.19 in 10.0 mi Calm Calm - N/A   Clear
3:53 PM 73.9 °F - 55.0 °F 52% 30.18 in 10.0 mi Variable 4.6 mph - N/A   Clear
4:53 PM 73.9 °F - 55.0 °F 52% 30.17 in 10.0 mi WNW 5.8 mph - N/A   Clear
5:53 PM 72.0 °F - 55.0 °F 55% 30.17 in 10.0 mi NW 5.8 mph - N/A   Clear
6:53 PM 64.9 °F - 57.0 °F 75% 30.18 in 10.0 mi ENE 3.5 mph - N/A   Clear
7:53 PM 62.1 °F - 57.9 °F 86% 30.20 in 10.0 mi Calm Calm - N/A   Clear
8:53 PM 59.0 °F - 55.9 °F 90% 30.22 in 10.0 mi Calm Calm - N/A   Clear
9:53 PM 57.0 °F - 55.0 °F 93% 30.23 in 10.0 mi Calm Calm - N/A   Clear
10:53 PM 55.0 °F - 54.0 °F 96% 30.22 in 10.0 mi Calm Calm - N/A   Clear
11:53 PM 54.0 °F - 53.1 °F 97% 30.22 in 10.0 mi East 3.5 mph - N/A   Clear